Find Starlink 33962

NORAD ID: 63950 Int'l Des: 2025-098 Owner: SPXS Country: US Constellation: starlink operational
LEOCIRCULAR

实时位置

正在加载3D地球...

关于 Starlink 33962

正在加载描述...

即将过境

Passes for default location (London). Set your location on the main map for personalized predictions.

高度历史

Loading altitude history...

两行轨道根数

1 63950U 25098AA 26107.20084140 .00002739 00000-0 23720-3 0 9990
2 63950 70.0014 177.2482 0004116 266.9978 93.0710 14.98337409 52316
Epoch: Apr 17, 2026 • Age: 11 hours

当前状态

高度 586.6 km
速度 7.57 km/s
星下点 -44.39°S, 72.21°E
发射日期 May 13, 2025
运行时间 0.9 years
类型 internet

技术详情

分类 Payload
质量 575.00 kg
干质量 530.00 kg
总质量 575.00 kg
长度 0.30 m
直径 4.10 m
跨度 29.00 m
形状 Box + pan
制造商 SPXS
平台类型 Starlink V2MO
阶段状态 In Orbit
所有者/国家 SPXS/US

Most Searched